CAPE
2 2 1 1 1 1 0 0 0 0 0 0 0 0 0 0 0 0 0 0 0 0 0 0 0 0 0 0 0 0 0 0 0 0 0 0 3 18 0 58 327 233 250 327 420 651 208
1 1 2 1 0 0 0 0 0 0 0 0 0 0 0 0 0 0 0 0 0 0 0 0 0 0 0 0 0 0 0 0 0 0 0 0 0 9 110 437 538 213 50 7 20 372 150
1 1 1 0 0 0 0 0 0 0 0 0 0 0 0 0 0 0 0 0 0 0 0 0 0 0 0 0 0 0 0 0 0 0 0 0 0 1 71 62 296 90 8 7 1 58 127
1 1 1 1 0 0 0 0 0 0 0 0 0 0 0 0 0 0 0 0 0 0 0 0 0 0 0 0 0 0 0 0 0 0 0 0 0 0 11 12 0 6 181 14 27 11 103
0 0 1 1 0 0 0 0 0 0 0 0 0 0 0 0 0 0 0 0 0 0 0 0 0 0 0 0 0 0 0 0 0 0 0 0 0 0 93 38 0 0 50 105 60 38 45
0 0 0 0 0 0 0 0 0 0 0 0 0 0 0 0 0 0 0 0 0 0 0 0 0 0 0 0 0 0 0 0 0 0 0 0 0 1 118 21 0 0 7 207 141 150 143
0 0 0 0 0 0 0 0 0 0 0 0 0 0 0 0 0 0 0 0 0 0 0 0 0 0 0 0 0 0 0 0 0 0 0 0 0 0 117 27 7 40 38 263 287 317 454
0 0 0 0 0 0 0 0 0 0 0 0 0 0 0 0 0 0 0 0 0 0 0 0 0 0 0 0 0 0 0 0 0 0 0 0 0 2 126 77 79 125 154 145 510 336 205
0 1 0 0 1 0 0 0 0 0 0 0 0 0 0 0 0 0 0 0 0 0 0 0 0 0 0 0 0 0 0 0 0 0 0 0 0 3 0 94 19 43 28 321 295 411 17
0 0 0 0 0 0 0 0 0 0 0 0 0 0 0 0 0 0 0 0 0 0 0 0 0 0 0 0 0 0 0 0 0 0 0 0 0 0 1 0 0 0 3 33 247 122 0
1 0 0 0 0 0 0 0 0 0 0 0 0 0 0 0 0 0 0 0 0 0 0 0 0 0 0 0 0 0 0 0 0 0 0 0 0 0 0 0 0 5 9 1 27 113 11
1 0 0 0 0 0 0 0 0 0 0 0 0 0 0 0 0 0 0 0 0 0 0 0 0 0 0 0 0 0 0 0 0 0 0 0 0 0 0 0 0 0 0 1 8 34 59
1 0 0 0 0 0 0 0 0 0 0 0 0 0 0 0 0 0 0 0 0 0 0 0 0 0 0 0 0 0 0 0 0 0 0 0 0 0 0 0 0 0 0 69 172 85 128
0 0 0 0 0 0 0 0 0 0 0 0 0 0 0 0 0 0 0 0 0 0 0 0 0 0 0 0 0 0 0 0 0 0 0 0 0 0 0 0 11 9 4 11 94 69 3
0 0 0 0 0 0 0 0 0 0 0 0 0 0 0 0 0 0 0 0 0 0 0 0 0 0 0 0 0 0 0 0 0 0 0 0 0 0 0 0 3 55 7 32 3 0 74
0 0 0 0 0 0 0 0 0 0 0 0 0 0 0 0 0 0 0 0 0 0 0 0 0 0 0 0 0 0 0 0 0 0 0 0 0 1 0 0 0 0 0 7 8 0 63
0 0 0 0 0 0 0 0 0 0 0 0 0 0 0 0 0 0 0 0 0 0 0 0 0 0 0 0 0 0 0 0 0 0 0 0 0 1 17 0 0 0 0 0 0 26 108
0 0 0 0 0 0 0 0 0 0 0 0 0 0 0 0 0 0 0 0 0 0 0 0 0 0 0 0 0 0 1 0 0 0 0 0 0 1 60 44 0 0 17 0 0 13 62
0 0 0 0 0 0 0 0 0 0 0 0 0 0 0 0 0 0 0 0 0 0 0 0 0 0 0 0 0 0 0 0 0 0 0 0 0 0 6 58 31 5 64 47 17 113 139
0 0 0 0 0 0 0 0 0 0 0 0 0 0 0 0 0 0 0 0 0 0 0 0 0 0 0 0 0 0 0 0 0 0 0 0 0 7 9 50 29 7 17 0 0 4 17
0 0 0 0 0 0 0 0 0 0 0 0 0 0 0 0 0 0 0 0 0 0 0 0 0 0 0 0 0 0 0 0 1 0 0 0 0 0 1 39 9 9 73 24 26 0 1
0 0 0 0 0 0 0 0 0 0 0 0 0 0 0 0 0 0 0 0 0 0 0 0 0 0 0 0 0 2 22 13 2 7 12 0 0 11 0 19 14 0 0 9 1 0 0
0 0 0 0 0 0 0 0 0 0 0 0 0 0 0 0 0 0 0 0 0 0 0 0 0 4 3 4 15 18 0 5 26 45 22 44 17 22 3 6 5 0 1 5 0 0 0
0 0 0 0 0 0 0 0 0 0 0 0 0 0 0 0 0 0 0 0 0 0 0 0 0 1 0 2 0 0 0 0 10 29 37 19 51 108 17 33 2 0 0 2 0 0 0
0 0 0 0 0 0 0 0 0 0 0 0 0 1 0 0 0 0 0 0 0 0 0 0 0 0 0 0 0 0 0 0 0 3 27 33 20 44 60 87 9 55 0 4 2 0 0
0 0 0 0 0 0 0 0 1 0 0 0 0 1 3 0 0 0 0 0 0 0 0 4 11 20 1 0 0 0 0 0 0 0 0 32 7 33 74 33 18 98 7 0 0 0 0
0 0 0 0 0 0 0 0 3 0 0 0 0 9 14 3 0 0 0 0 0 0 0 13 21 17 24 10 8 10 13 7 10 16 8 62 20 8 11 34 6 114 12 0 0 66 110
0 0 0 0 0 0 0 0 2 0 0 0 0 17 17 5 0 0 0 0 0 0 0 0 0 20 32 13 13 7 12 20 18 11 68 102 73 51 11 10 73 79 0 1 4 16 167
0 0 0 0 0 0 0 0 0 4 0 0 0 13 27 21 0 0 0 0 0 0 0 0 0 0 15 59 76 127 69 54 39 26 85 93 14 3 27 2 120 54 0 17 2 1 102
CIN
0 0 0 0 0 0 0 0 0 0 0 0 0 0 0 0 0 0 0 0 0 0 0 0 0 0 0 0 0 0 0 0 0 0 0 0 -3 -59 -2 -171 -25 -17 -16 -34 -44 -6 -35
0 0 0 0 0 0 0 0 0 0 0 0 0 0 0 0 0 0 0 0 0 0 0 0 0 0 0 0 0 0 0 0 0 0 0 0 0 -17 -14 -22 -16 -38 -38 -57 -80 -26 -45
0 0 0 0 0 0 0 0 0 0 0 0 0 0 0 0 0 0 0 0 0 0 0 0 0 0 0 0 0 0 0 0 0 0 0 0 0 -5 -63 -55 -12 -74 -74 -82 -84 -70 -90
0 0 0 0 0 0 0 0 0 0 0 0 0 0 0 0 0 0 0 0 0 0 0 0 0 0 0 0 0 0 0 0 0 0 0 0 0 0 -15 -104 0 -32 -43 -61 -70 -73 -39
0 0 0 0 0 0 0 0 0 0 0 0 0 0 0 0 0 0 0 0 0 0 0 0 0 0 0 0 0 0 0 0 0 0 0 0 0 0 -119 -78 0 0 -16 -65 -68 -142 -143
0 0 0 0 0 0 0 0 0 0 0 0 0 0 0 0 0 0 0 0 0 0 0 0 0 0 0 0 0 0 0 0 0 0 0 0 0 -9 -86 -62 -7 0 -17 -32 -48 -103 -33
0 0 0 0 0 0 0 0 0 0 0 0 0 0 0 0 0 0 0 0 0 0 0 0 0 0 0 0 0 0 0 0 0 0 0 0 0 0 -28 -47 -107 -173 -58 -5 -37 -19 -1
0 0 0 0 0 0 0 0 0 0 0 0 0 0 0 0 0 0 0 0 0 0 0 0 0 0 0 0 0 0 0 0 0 0 0 0 0 -6 -14 -79 -115 -81 -64 -13 -15 -39 -17
0 0 0 0 0 0 0 0 0 0 0 0 0 0 0 0 0 0 0 0 0 0 0 0 0 0 0 0 0 0 0 0 0 0 0 0 0 -4 -2 -19 -18 -10 -29 -12 -18 -21 -84
0 -1 0 0 0 0 0 0 0 0 0 0 0 0 0 0 0 0 0 0 0 0 0 0 0 0 0 0 0 0 0 0 0 0 0 0 0 0 -3 0 0 -6 -1 -2 -5 -30 -8
-2 -1 0 0 0 0 0 0 0 0 0 0 0 0 0 0 0 0 0 0 0 0 0 0 0 0 0 0 0 0 0 0 0 0 0 0 0 0 0 0 0 -5 -4 -1 -1 -42 -89
-3 0 0 0 0 0 0 0 0 0 0 0 0 0 0 0 0 0 0 0 0 0 0 0 0 0 0 0 0 0 0 0 0 0 0 0 0 0 0 0 0 0 0 -2 -2 -31 -28
-5 0 0 0 0 0 0 0 0 0 0 0 0 0 0 0 0 0 0 0 0 0 0 0 0 0 0 0 0 0 0 0 0 0 0 0 0 0 0 0 0 0 0 -20 -7 -17 -7
0 0 0 0 0 0 0 0 0 0 0 0 0 0 0 0 0 0 0 0 0 0 0 0 0 0 0 0 0 0 0 0 0 0 0 0 0 0 0 0 -41 -74 -11 -48 -28 -13 -41
0 0 0 0 0 0 0 0 0 0 0 0 0 0 0 0 0 0 0 0 0 0 0 0 0 0 0 0 0 0 0 0 0 0 0 0 0 0 0 0 -35 -15 -63 -17 -7 0 -3
0 0 0 0 0 0 0 0 0 0 0 0 0 0 0 0 0 0 0 0 0 0 0 0 0 0 0 0 0 0 0 0 0 0 0 0 -5 -2 0 0 0 0 0 -30 -1 0 -4
0 0 0 0 0 0 0 0 0 0 0 0 0 0 0 0 0 0 0 0 0 0 0 0 0 0 0 0 0 0 0 0 0 0 0 0 0 -15 -8 0 0 0 0 0 -2 -27 -15
0 0 0 0 0 0 0 0 0 0 0 0 0 0 0 0 0 0 0 0 0 0 0 0 0 0 0 0 0 0 -14 0 0 0 0 0 0 -7 -12 -7 0 0 -46 0 0 -8 -9
0 0 0 0 0 0 0 0 0 0 0 0 0 0 0 0 0 0 0 0 0 0 0 0 0 0 0 0 0 0 0 0 0 0 0 -1 0 0 -16 -17 -12 -21 -13 -6 -38 -3 -29
0 0 0 0 0 0 0 0 0 0 0 0 0 0 0 0 0 0 0 0 0 0 0 0 0 0 0 0 0 0 0 0 0 -3 0 0 -3 -6 -10 -11 -83 -66 -4 0 0 -3 -43
0 0 0 0 0 0 0 0 0 0 0 0 0 0 0 0 -1 0 0 0 0 0 0 0 0 0 0 0 0 0 0 0 -2 0 0 0 0 0 -51 -8 -31 -30 -31 -21 -24 -1 -14
0 0 0 0 0 0 0 0 0 0 0 0 0 0 0 0 0 0 0 0 0 0 0 0 0 0 0 0 0 -3 -6 -2 -5 -16 -6 0 0 -46 0 -24 -46 -2 0 -106 -5 0 -12
0 0 0 0 0 0 0 0 0 0 0 0 0 0 0 0 0 0 0 0 0 0 0 0 0 -6 -5 -8 -19 -18 -2 -27 -22 -37 -28 -30 -8 -30 -34 -35 -12 0 -8 -12 -1 0 0
0 0 0 0 0 0 0 0 0 0 0 0 0 0 0 0 0 0 0 0 0 0 0 0 -3 -3 0 -7 0 0 0 0 -75 -33 -15 -39 -15 -17 -23 -14 -6 0 -28 -4 -4 0 0
0 0 0 0 0 0 0 0 0 0 0 0 0 -1 0 0 0 0 0 0 0 0 0 0 0 0 0 0 0 0 0 0 0 -44 -28 -7 -21 -15 -8 -3 -6 -13 0 -14 -22 0 0
0 0 0 0 0 0 0 0 -2 0 0 0 0 -2 -2 0 -1 0 0 0 0 0 0 -2 -8 -4 0 0 0 0 0 0 0 0 0 -9 -23 -2 -1 -7 -13 -13 -33 0 0 0 0
0 0 0 0 0 0 0 0 -3 0 0 0 0 -2 -1 0 0 0 0 0 0 0 0 -4 -7 -6 -5 -4 -4 -5 -4 -3 -5 -5 -8 -6 -7 -8 -7 -18 -39 -36 -37 0 0 -1 -5
0 0 0 0 0 0 0 0 -6 -2 0 0 0 -1 -2 -1 0 0 0 0 0 0 0 0 0 -28 -6 -6 -4 -5 -4 -3 -2 -3 -6 -1 -5 -8 -33 -20 -4 -13 -7 -57 -24 -101 -6
0 0 0 0 0 0 0 0 0 -5 0 0 -1 0 -3 -1 0 0 0 0 0 0 0 0 0 0 -52 -9 -8 -2 -3 -1 -2 -5 -56 -5 -40 -51 -83 -39 -8 -19 0 -24 -135 -2 -1
Wind_Speed
17 16 17 17 17 17 16 14 13 11 9 7 7 5 4 4 5 6 7 8 10 11 13 15 18 19 10 10 9 10 7 8 10 15 22 20 16 17 11 18 17 18 15 10 10 13 8
20 20 19 19 19 19 19 20 19 18 16 15 13 12 9 7 5 5 6 7 9 11 13 14 17 19 16 12 11 10 9 7 18 17 23 21 19 12 12 8 13 16 13 9 9 12 12
22 22 21 19 20 21 21 21 20 21 21 21 21 19 18 15 13 9 8 8 10 11 13 14 15 14 17 15 12 10 8 11 15 23 25 21 23 15 14 17 16 16 17 12 7 15 16
25 25 24 24 23 24 23 22 24 25 26 25 26 25 24 22 19 16 12 10 10 12 13 13 14 15 15 10 10 10 8 13 22 26 26 24 22 23 16 13 14 20 16 14 14 23 7
27 28 28 27 27 26 27 27 28 29 29 31 31 30 28 25 21 18 15 11 10 13 13 14 14 14 14 10 13 13 13 7 17 27 26 25 24 24 14 11 23 21 20 17 19 23 16
28 30 30 30 30 30 31 31 31 32 34 34 32 29 27 25 23 21 18 9 11 14 13 13 14 12 15 12 13 12 10 14 13 27 27 27 26 18 15 23 23 16 16 17 16 18 13
30 31 32 32 32 32 33 34 34 34 34 30 29 27 24 24 23 23 21 12 13 12 12 13 14 12 13 12 14 14 14 13 18 26 27 27 26 25 16 5 13 16 14 14 18 16 16
32 33 33 34 34 34 34 35 35 32 28 25 26 26 24 21 20 20 8 11 5 18 6 15 16 12 12 13 13 14 15 16 16 21 25 27 25 19 12 7 8 9 10 17 16 16 17
31 33 34 35 35 34 36 37 36 31 29 29 25 23 23 23 22 6 11 14 12 11 11 13 14 10 12 12 13 14 16 18 15 20 29 28 27 12 14 6 2 5 12 11 13 15 14
32 34 35 36 36 37 38 39 37 31 30 29 27 25 25 25 15 8 10 11 9 7 5 11 11 10 11 13 13 15 17 18 18 18 23 30 26 26 19 14 17 26 19 13 9 12 19
34 36 37 38 38 39 40 39 36 35 33 32 29 27 25 8 22 9 17 10 10 9 14 16 12 11 12 15 13 13 14 20 18 14 27 29 27 27 28 21 11 16 10 12 11 7 14
36 37 39 39 40 41 41 39 36 36 35 33 32 29 26 11 8 15 17 11 10 10 8 13 12 10 10 12 8 11 13 14 11 25 21 31 28 24 23 14 23 24 23 20 18 5 15
37 38 39 39 41 41 41 39 37 37 35 34 33 29 14 8 11 11 9 11 9 7 10 9 10 10 11 7 8 7 8 9 13 9 14 12 24 17 22 21 15 13 23 18 22 19 22
38 38 39 40 41 41 41 40 39 39 37 35 32 27 10 7 8 8 9 11 5 7 6 12 8 9 8 10 4 4 5 7 10 21 22 5 8 2 4 20 18 23 26 21 20 20 27
38 38 40 41 42 41 41 41 41 40 38 36 30 16 12 12 9 8 9 6 3 5 16 19 7 4 6 6 5 3 1 4 7 5 21 28 7 4 3 8 11 21 22 28 29 31 17
37 39 40 42 42 41 41 41 41 41 40 34 29 14 7 14 10 7 3 5 2 5 14 15 11 3 3 3 6 5 2 1 2 8 2 30 28 3 6 7 18 27 24 23 21 22 21
38 40 41 42 42 42 42 42 42 42 41 31 19 17 14 12 10 6 2 2 1 6 8 8 3 3 5 2 6 6 3 12 7 10 5 20 32 14 22 14 17 11 20 24 27 22 21
39 40 42 42 42 42 42 42 42 44 43 34 20 18 15 11 9 8 6 4 5 13 10 9 7 9 14 19 10 6 9 7 14 10 8 11 24 18 4 14 9 28 20 16 24 20 19
40 41 42 42 42 42 41 42 42 43 42 34 23 20 14 10 12 12 13 9 16 19 16 13 11 10 18 15 20 23 22 23 25 13 16 17 16 29 25 24 22 15 11 27 26 21 22
40 41 41 41 41 40 41 41 42 41 40 31 21 21 15 13 11 17 20 21 25 16 15 21 24 21 16 14 16 20 22 25 27 20 18 22 25 28 36 25 18 32 29 24 21 28 22
38 39 40 40 40 40 41 41 41 41 38 26 20 20 27 18 21 27 24 26 25 23 19 13 19 14 16 16 15 9 17 26 23 17 21 20 29 33 38 16 23 28 32 31 20 27 29
36 38 39 39 39 39 41 41 41 40 37 20 26 25 27 23 19 19 19 18 18 22 20 21 15 17 18 13 15 24 23 21 16 19 21 22 21 37 42 25 23 21 29 33 23 24 23
36 36 38 38 39 39 40 41 41 41 37 24 29 26 22 22 24 22 22 25 26 28 23 28 27 27 27 20 23 25 26 23 24 25 23 24 25 35 44 40 23 33 23 36 25 24 25
33 33 35 36 37 38 38 39 39 38 35 26 26 26 22 23 26 26 30 30 30 28 30 29 29 27 24 32 28 29 32 31 31 30 27 20 35 33 40 39 44 27 15 29 25 22 19
30 31 32 33 35 36 36 37 37 36 35 28 24 25 22 23 27 27 29 29 29 29 28 27 27 29 31 30 32 30 29 27 25 26 25 27 35 36 36 41 42 35 21 24 17 23 19
28 29 30 31 32 33 33 34 34 34 33 28 26 22 23 23 15 30 28 28 28 30 29 27 25 21 19 25 25 26 24 24 24 22 33 33 32 36 39 44 43 38 27 20 21 22 20
26 27 27 29 30 31 31 31 32 31 32 29 22 21 21 23 19 29 26 29 29 29 28 26 27 21 19 21 23 22 25 24 25 28 24 26 33 42 40 38 35 34 14 12 20 17 14
25 25 26 27 28 29 29 28 29 28 30 29 23 22 23 22 25 21 25 26 25 22 24 25 28 23 21 19 22 24 27 27 28 23 25 35 35 34 45 48 38 29 12 15 13 23 15
24 25 25 26 26 26 27 26 27 28 28 28 21 22 22 19 19 21 19 15 13 18 28 28 28 25 19 21 22 21 26 27 23 25 19 26 29 34 27 33 43 21 21 25 19 23 14
Wind_Direction
343 341 340 338 336 333 330 325 324 319 313 306 298 278 239 192 165 161 154 151 154 161 171 183 201 246 296 111 170 38 73 85 108 137 186 193 194 351 211 229 259 341 2 354 326 273 344
342 339 336 335 332 330 328 327 324 322 317 311 304 294 277 252 215 184 164 151 142 143 150 162 178 219 137 127 21 61 90 95 154 149 196 202 220 3 69 281 7 15 12 27 326 294 0
338 337 334 330 329 329 327 325 321 321 319 317 312 306 297 283 269 244 227 201 171 150 141 143 146 128 164 173 17 63 98 132 148 187 215 201 258 339 359 296 34 39 1 327 342 284 303
340 336 333 332 329 329 326 322 322 323 322 317 316 314 309 300 282 268 247 219 177 158 139 132 137 147 153 124 302 123 112 148 181 201 217 250 279 259 332 5 326 330 346 299 312 252 33
341 338 336 332 330 327 326 325 324 322 320 322 322 320 314 299 284 271 254 226 180 140 127 116 125 126 191 41 147 151 144 132 162 210 215 232 259 259 351 43 324 299 273 26 38 219 281
335 337 335 334 332 330 331 328 325 322 325 324 317 310 302 293 282 273 255 157 92 77 116 131 177 153 176 155 131 126 118 144 284 206 234 234 248 302 327 340 328 309 237 83 46 133 311
334 334 333 333 332 332 332 330 327 325 322 313 308 301 292 286 279 274 282 61 67 78 138 148 89 143 62 117 94 122 126 136 158 243 234 229 255 281 316 51 34 101 152 112 77 116 104
332 332 332 331 331 330 327 329 327 317 309 304 302 298 291 276 264 250 102 126 235 298 168 188 186 165 69 83 105 129 128 141 144 237 247 242 263 304 350 72 103 82 99 28 65 97 115
329 330 330 330 330 328 329 328 324 313 308 305 298 293 288 281 267 99 158 179 218 218 218 205 161 139 130 103 129 129 134 149 139 175 235 243 253 329 340 341 178 103 8 71 38 86 360
328 330 331 332 332 333 332 330 322 311 307 302 297 293 290 285 4 109 145 170 166 93 140 128 115 125 106 132 139 129 145 151 174 179 198 247 270 273 315 318 292 292 310 11 38 360 320
330 334 335 335 336 336 335 327 317 313 308 303 296 291 286 36 274 47 0 80 70 82 62 81 106 72 103 127 114 124 135 171 179 164 251 238 268 280 277 294 335 331 12 339 348 9 350
334 337 339 341 340 338 334 323 316 314 309 304 298 291 285 46 82 179 299 31 88 79 58 88 83 94 112 141 95 62 139 156 164 220 203 248 266 287 279 306 280 275 295 299 312 5 314
342 344 346 345 341 336 330 323 317 315 311 305 297 288 304 43 46 13 110 114 75 70 77 68 100 107 140 112 138 54 112 143 161 145 187 175 232 306 288 293 310 319 272 302 305 295 301
349 350 349 345 341 335 330 326 321 317 313 307 297 282 40 100 354 79 96 126 92 75 145 29 72 111 126 148 88 49 70 141 161 194 222 78 174 146 344 281 292 281 278 292 295 296 279
354 352 349 346 339 332 330 328 325 320 315 311 298 13 39 48 107 91 120 146 92 153 353 338 28 76 145 155 167 122 104 163 165 155 202 225 302 313 163 324 297 289 281 273 279 275 296
356 352 348 344 338 332 329 327 326 323 320 313 330 18 42 16 45 74 98 201 161 178 342 334 345 23 181 169 179 186 218 308 230 186 190 223 275 21 303 314 292 274 292 284 291 288 290
352 349 346 342 340 335 332 329 328 326 323 308 11 12 19 34 39 27 340 338 271 210 349 339 308 255 206 210 206 205 255 311 307 310 274 276 255 305 282 286 299 299 279 272 268 286 292
348 347 345 342 340 336 334 331 330 334 330 343 358 356 19 26 7 359 332 323 326 331 343 338 320 315 313 312 310 268 259 283 319 313 292 289 278 289 284 301 307 242 281 288 271 289 299
345 346 345 344 339 336 333 332 331 335 348 349 347 343 14 17 346 342 332 325 325 321 321 317 315 303 307 304 306 301 302 284 278 298 295 278 285 274 279 281 268 287 284 264 273 288 283
345 344 342 342 338 333 332 330 329 327 336 353 358 352 4 4 350 335 330 326 322 326 319 308 305 307 306 304 299 300 299 287 291 286 293 292 275 271 256 270 286 264 268 278 274 264 283
348 347 341 338 338 334 333 331 329 326 321 1 4 350 343 345 332 328 329 322 321 321 317 321 310 305 308 304 305 281 294 285 297 291 292 286 272 270 258 286 275 280 269 261 276 270 267
349 347 341 338 332 333 335 333 330 328 319 13 353 348 337 334 333 332 330 327 322 317 314 311 312 307 308 293 290 297 301 289 280 292 292 279 271 263 255 276 280 287 250 234 275 277 280
346 347 339 340 336 337 339 337 337 338 339 360 350 346 346 337 331 329 327 323 318 314 312 304 302 301 301 307 306 298 302 296 299 291 292 286 276 265 253 254 285 268 281 267 281 280 276
348 349 344 341 340 339 341 344 346 347 349 354 349 347 344 332 328 324 320 317 313 311 306 303 298 300 298 292 307 298 288 286 281 279 280 271 269 267 260 262 249 232 252 226 287 273 280
346 348 348 346 343 343 344 346 347 349 348 352 353 348 344 333 325 321 320 319 317 313 306 302 298 294 296 296 294 295 294 289 280 273 273 273 266 269 268 262 263 268 276 295 286 283 289
346 347 348 347 346 346 346 347 349 351 352 354 352 350 341 335 340 328 324 321 317 314 310 310 310 304 300 293 291 287 287 291 287 277 269 269 270 267 265 259 254 265 277 300 311 287 284
346 348 350 348 348 348 349 350 352 353 352 354 356 358 351 335 328 332 324 320 317 316 312 312 316 312 308 295 287 287 288 287 282 282 278 268 263 256 255 261 265 259 304 296 279 301 312
346 348 350 350 351 349 351 353 354 355 354 353 352 356 348 340 329 327 325 319 316 309 303 306 309 309 302 300 295 291 287 287 285 284 276 265 261 261 245 244 258 251 297 281 271 286 303
347 349 351 352 352 353 353 354 353 352 353 353 355 357 352 341 325 318 310 298 290 302 299 298 291 298 311 304 301 299 291 288 290 281 288 271 263 260 260 258 251 288 269 264 282 287 316